When you browse on this site, cookies collect data to enhance your experience and personalize the content and advertising you see.
Visit our Privacy Policy to learn more. By continuing to use the site, you agree to this use of cookies and data.
  • In Hungary
  • List of Countries
  • For 7 days
  • Water Temperature
  • Satellite Maps
  • Weather Map
  • News
  • Weather Widgets
  • user-avatar
    Login

    Hourly Weather Taba

    Today, 20 April, Saturday

    Time Temperature Precipitation Wind Pressure Humidity
    00:00 +13°C° 0 mm 3 mps 694 mmHg 53%
    01:00 +12°C° 0 mm 3 mps 693 mmHg 58%
    02:00 +12°C° 0 mm 2 mps 692 mmHg 63%
    03:00 +12°C° 0 mm 2 mps 692 mmHg 65%
    04:00 +10°C° 0 mm 2 mps 692 mmHg 68%
    05:00 +10°C° 0 mm 2 mps 693 mmHg 71%
    06:00 +10°C° 0 mm 2 mps 693 mmHg 66%
    07:00 +12°C° 0 mm 2 mps 693 mmHg 61%
    08:00 +13°C° 0 mm 1 mps 693 mmHg 54%
    09:00 +14°C° 0 mm 2 mps 693 mmHg 45%
    10:00 +16°C° 0 mm 2 mps 693 mmHg 36%
    11:00 +17°C° 0 mm 2 mps 693 mmHg 27%
    12:00 +18°C° 0 mm 3 mps 693 mmHg 24%
    13:00 +19°C° 0 mm 4 mps 693 mmHg 21%
    14:00 +20°C° 0 mm 5 mps 693 mmHg 19%
    15:00 +20°C° 0 mm 6 mps 692 mmHg 21%
    16:00 +18°C° 0 mm 7 mps 692 mmHg 24%
    17:00 +18°C° 0 mm 7 mps 692 mmHg 26%
    18:00 +17°C° 0 mm 7 mps 692 mmHg 29%
    19:00 +16°C° 0 mm 6 mps 692 mmHg 32%
    20:00 +15°C° 0 mm 6 mps 692 mmHg 34%
    21:00 +14°C° 0 mm 5 mps 693 mmHg 40%
    22:00 +13°C° 0 mm 5 mps 693 mmHg 45%
    23:00 +13°C° 0 mm 5 mps 693 mmHg 50%

    Tomorrow, 21 April, Sunday

    Time Temperature Precipitation Wind Pressure Humidity
    00:00 +12°C° 0 mm 5 mps 693 mmHg 56%
    01:00 +10°C° 0 mm 5 mps 692 mmHg 61%
    02:00 +9°C° 0 mm 5 mps 692 mmHg 66%
    03:00 +9°C° 0 mm 5 mps 692 mmHg 67%
    04:00 +8°C° 0 mm 5 mps 692 mmHg 68%
    05:00 +7°C° 0 mm 4 mps 692 mmHg 68%
    06:00 +8°C° 0 mm 5 mps 692 mmHg 63%
    07:00 +9°C° 0 mm 5 mps 692 mmHg 58%
    08:00 +9°C° 0 mm 5 mps 692 mmHg 52%
    09:00 +11°C° 0 mm 6 mps 693 mmHg 45%
    10:00 +13°C° 0 mm 6 mps 693 mmHg 38%
    11:00 +15°C° 0 mm 7 mps 693 mmHg 31%
    12:00 +15°C° 0 mm 7 mps 693 mmHg 29%
    13:00 +16°C° 0 mm 8 mps 692 mmHg 28%
    14:00 +17°C° 0 mm 8 mps 692 mmHg 26%
    15:00 +16°C° 0 mm 8 mps 692 mmHg 27%
    16:00 +16°C° 0 mm 9 mps 692 mmHg 29%
    17:00 +15°C° 0 mm 9 mps 692 mmHg 30%
    18:00 +13°C° 0 mm 8 mps 692 mmHg 35%
    19:00 +12°C° 0 mm 8 mps 692 mmHg 40%
    20:00 +11°C° 0 mm 7 mps 693 mmHg 45%
    21:00 +10°C° 0 mm 6 mps 693 mmHg 48%
    22:00 +10°C° 0 mm 5 mps 693 mmHg 51%
    23:00 +10°C° 0 mm 4 mps 693 mmHg 53%

    Day after tomorrow, 22 April, Monday

    Time Temperature Precipitation Wind Pressure Humidity
    00:00 +8°C° 0 mm 4 mps 693 mmHg 57%
    01:00 +9°C° 0 mm 3 mps 692 mmHg 60%
    02:00 +8°C° 0 mm 3 mps 692 mmHg 63%
    03:00 +8°C° 0 mm 2 mps 692 mmHg 66%
    04:00 +7°C° 0 mm 2 mps 692 mmHg 68%
    05:00 +7°C° 0 mm 2 mps 692 mmHg 71%
    06:00 +8°C° 0 mm 2 mps 692 mmHg 61%
    07:00 +9°C° 0 mm 2 mps 693 mmHg 52%
    08:00 +11°C° 0 mm 1 mps 693 mmHg 42%
    09:00 +13°C° 0 mm 2 mps 693 mmHg 33%
    10:00 +15°C° 0 mm 2 mps 693 mmHg 24%
    11:00 +17°C° 0 mm 3 mps 694 mmHg 15%
    12:00 +18°C° 0 mm 4 mps 694 mmHg 14%
    13:00 +19°C° 0 mm 5 mps 693 mmHg 14%
    14:00 +20°C° 0 mm 6 mps 693 mmHg 13%
    15:00 +19°C° 0 mm 6 mps 693 mmHg 15%
    16:00 +18°C° 0 mm 7 mps 693 mmHg 17%
    17:00 +17°C° 0 mm 7 mps 693 mmHg 19%
    18:00 +16°C° 0 mm 6 mps 693 mmHg 23%
    19:00 +15°C° 0 mm 5 mps 694 mmHg 28%
    20:00 +14°C° 0 mm 4 mps 694 mmHg 32%
    21:00 +14°C° 0 mm 3 mps 694 mmHg 36%
    22:00 +13°C° 0 mm 3 mps 695 mmHg 39%
    23:00 +12°C° 0 mm 3 mps 695 mmHg 43%

    23 April, Tuesday

    Time Temperature Precipitation Wind Pressure Humidity
    00:00 +13°C° 0 mm 2 mps 694 mmHg 46%
    01:00 +12°C° 0 mm 2 mps 694 mmHg 49%
    02:00 +10°C° 0 mm 2 mps 694 mmHg 52%
    03:00 +10°C° 0 mm 2 mps 694 mmHg 54%
    04:00 +10°C° 0 mm 2 mps 694 mmHg 55%
    05:00 +9°C° 0 mm 2 mps 694 mmHg 56%
    06:00 +12°C° 0 mm 2 mps 694 mmHg 47%
    07:00 +12°C° 0 mm 3 mps 695 mmHg 38%
    08:00 +14°C° 0 mm 3 mps 696 mmHg 28%
    09:00 +17°C° 0 mm 3 mps 696 mmHg 24%
    10:00 +19°C° 0 mm 4 mps 696 mmHg 19%
    11:00 +20°C° 0 mm 4 mps 696 mmHg 14%
    12:00 +21°C° 0 mm 4 mps 696 mmHg 13%
    13:00 +23°C° 0 mm 5 mps 696 mmHg 12%
    14:00 +25°C° 0 mm 5 mps 696 mmHg 10%
    15:00 +23°C° 0 mm 6 mps 696 mmHg 12%
    16:00 +23°C° 0 mm 6 mps 696 mmHg 14%
    17:00 +23°C° 0 mm 7 mps 696 mmHg 16%
    18:00 +21°C° 0 mm 6 mps 696 mmHg 19%
    19:00 +20°C° 0 mm 5 mps 696 mmHg 22%
    20:00 +19°C° 0 mm 4 mps 696 mmHg 26%
    21:00 +18°C° 0 mm 3 mps 696 mmHg 29%
    22:00 +18°C° 0 mm 3 mps 696 mmHg 33%
    23:00 +17°C° 0 mm 3 mps 696 mmHg 37%

    24 April, Wednesday

    Time Temperature Precipitation Wind Pressure Humidity
    00:00 +16°C° 0 mm 3 mps 696 mmHg 42%
    01:00 +16°C° 0 mm 3 mps 695 mmHg 46%
    02:00 +14°C° 0 mm 3 mps 695 mmHg 51%
    03:00 +14°C° 0 mm 3 mps 695 mmHg 53%
    04:00 +13°C° 0 mm 3 mps 695 mmHg 55%
    05:00 +14°C° 0 mm 2 mps 695 mmHg 56%
    06:00 +16°C° 0 mm 3 mps 696 mmHg 46%
    07:00 +18°C° 0 mm 3 mps 696 mmHg 35%
    08:00 +20°C° 0 mm 3 mps 697 mmHg 24%
    09:00 +22°C° 0 mm 4 mps 697 mmHg 20%
    10:00 +23°C° 0 mm 4 mps 697 mmHg 16%
    11:00 +26°C° 0 mm 5 mps 697 mmHg 11%
    12:00 +27°C° 0 mm 5 mps 697 mmHg 10%
    13:00 +28°C° 0 mm 5 mps 696 mmHg 9%
    14:00 +29°C° 0 mm 5 mps 696 mmHg 8%
    15:00 +29°C° 0 mm 5 mps 696 mmHg 8%
    16:00 +29°C° 0 mm 5 mps 695 mmHg 8%
    17:00 +29°C° 0 mm 5 mps 695 mmHg 8%
    18:00 +27°C° 0 mm 5 mps 695 mmHg 11%
    19:00 +26°C° 0 mm 5 mps 696 mmHg 14%
    20:00 +23°C° 0 mm 4 mps 696 mmHg 17%
    21:00 +22°C° 0 mm 4 mps 696 mmHg 23%
    22:00 +21°C° 0 mm 4 mps 695 mmHg 30%
    23:00 +20°C° 0 mm 3 mps 695 mmHg 36%

    25 April, Thursday

    Time Temperature Precipitation Wind Pressure Humidity
    00:00 +19°C° 0 mm 3 mps 695 mmHg 40%
    01:00 +18°C° 0 mm 3 mps 695 mmHg 44%
    02:00 +18°C° 0 mm 3 mps 694 mmHg 48%
    03:00 +17°C° 0 mm 3 mps 694 mmHg 48%
    04:00 +17°C° 0 mm 3 mps 694 mmHg 49%
    05:00 +16°C° 0 mm 3 mps 694 mmHg 49%
    06:00 +18°C° 0 mm 3 mps 695 mmHg 42%
    07:00 +20°C° 0 mm 4 mps 695 mmHg 35%
    08:00 +22°C° 0 mm 4 mps 695 mmHg 28%
    09:00 +23°C° 0 mm 5 mps 696 mmHg 24%
    10:00 +26°C° 0 mm 5 mps 696 mmHg 19%
    11:00 +28°C° 0 mm 6 mps 696 mmHg 15%
    12:00 +29°C° 0 mm 7 mps 695 mmHg 14%
    13:00 +29°C° 0 mm 8 mps 695 mmHg 13%
    14:00 +31°C° 0 mm 8 mps 694 mmHg 13%
    15:00 +29°C° 0 mm 8 mps 694 mmHg 14%
    16:00 +28°C° 0 mm 9 mps 694 mmHg 16%
    17:00 +28°C° 0 mm 9 mps 694 mmHg 17%
    18:00 +26°C° 0 mm 8 mps 694 mmHg 21%
    19:00 +24°C° 0 mm 7 mps 694 mmHg 25%
    20:00 +22°C° 0 mm 6 mps 694 mmHg 28%
    21:00 +22°C° 0 mm 5 mps 694 mmHg 31%
    22:00 +21°C° 0 mm 4 mps 694 mmHg 34%
    23:00 +20°C° 0 mm 3 mps 694 mmHg 36%
    Show more